TimeCST,TemperatureF,Dew PointF,Humidity,Sea Level PressureIn,VisibilityMPH,Wind Direction,Wind SpeedMPH,Gust SpeedMPH,PrecipitationIn,Events,Conditions,WindDirDegrees,DateUTC
12:54 AM,41.0,37.9,89,30.12,10.0,South,6.9,-,N/A,,Clear,180,2012-11-09 06:54:00
1:54 AM,35.1,34.0,96,30.12,7.0,ESE,4.6,-,N/A,,Clear,120,2012-11-09 07:54:00
2:54 AM,39.9,37.9,93,30.11,10.0,SSE,6.9,-,N/A,,Clear,150,2012-11-09 08:54:00
3:54 AM,37.0,36.0,96,30.11,9.0,SE,4.6,-,N/A,,Clear,140,2012-11-09 09:54:00
4:54 AM,39.9,37.9,93,30.11,10.0,SSE,6.9,-,N/A,,Clear,160,2012-11-09 10:54:00
5:54 AM,39.9,37.0,89,30.11,10.0,SSE,5.8,-,N/A,,Clear,160,2012-11-09 11:54:00
6:54 AM,39.0,37.0,93,30.11,8.0,SSE,4.6,-,N/A,,Clear,160,2012-11-09 12:54:00
7:54 AM,44.1,39.9,85,30.11,10.0,SSE,8.1,-,N/A,,Clear,160,2012-11-09 13:54:00
8:54 AM,48.0,42.1,80,30.10,10.0,South,12.7,-,N/A,,Clear,180,2012-11-09 14:54:00
9:54 AM,51.1,44.1,77,30.08,10.0,South,10.4,-,N/A,,Overcast,170,2012-11-09 15:54:00
10:54 AM,54.0,45.0,72,30.06,10.0,South,13.8,19.6,N/A,,Overcast,180,2012-11-09 16:54:00
11:54 AM,60.1,48.0,64,30.03,10.0,South,13.8,-,N/A,,Partly Cloudy,180,2012-11-09 17:54:00
12:54 PM,63.0,51.1,65,29.99,10.0,South,12.7,-,N/A,,Clear,180,2012-11-09 18:54:00
1:54 PM,64.9,51.1,61,29.98,10.0,South,13.8,-,N/A,,Clear,180,2012-11-09 19:54:00
2:54 PM,64.9,52.0,63,29.96,10.0,South,13.8,20.7,N/A,,Clear,180,2012-11-09 20:54:00
3:54 PM,64.0,53.1,67,29.96,10.0,South,9.2,-,N/A,,Clear,180,2012-11-09 21:54:00
4:54 PM,61.0,53.1,75,29.96,10.0,South,8.1,-,N/A,,Clear,190,2012-11-09 22:54:00
5:54 PM,57.9,53.1,84,29.97,10.0,South,8.1,-,N/A,,Clear,180,2012-11-09 23:54:00
6:54 PM,59.0,52.0,78,29.96,10.0,South,11.5,-,N/A,,Clear,180,2012-11-10 00:54:00
7:54 PM,57.9,52.0,81,29.96,10.0,South,9.2,-,N/A,,Clear,180,2012-11-10 01:54:00
8:54 PM,59.0,54.0,83,29.96,10.0,South,12.7,-,N/A,,Clear,190,2012-11-10 02:54:00
9:54 PM,60.1,55.9,86,29.96,10.0,SSW,15.0,-,N/A,,Clear,200,2012-11-10 03:54:00
10:54 PM,59.0,55.0,87,29.97,10.0,SSW,16.1,23.0,N/A,,Clear,210,2012-11-10 04:54:00
11:54 PM,59.0,54.0,83,29.99,10.0,SSW,15.0,-,N/A,,Clear,210,2012-11-10 05:54:00